sat.trackr.live / text

‹ back to catalog

2024-092D

NORAD 59776 · 2024-092D

PAYLOAD ACTIVE UNKNOWN

§ Identity

Operator
Country
CIS
Launch date
2024-05-16
Launch site
PLMSC
Launch vehicle
Mass (kg)
RCS (m²)

External: N2YO · Heavens-Above · Gunter

§ Orbital elements

Epoch: 2026-05-25T02:30:22.346784Z

Period
93.75 min
Inclination
97.6541°
Eccentricity
0.0006815
Mean motion
15.36000209 rev/d
Perigee alt
453.3 km
Apogee alt
462.6 km
Semi-major
6,836.1 km
B*
5.2195e-4
RAAN
277.2472°
Arg perigee
223.5436°
Mean anomaly
136.5270°
Rev number
11,220

§ Raw data

2024-092D1 59776U 24092D   26145.10442531  .00018246  00000+0  52195-3 0  99942 59776  97.6541 277.2472 0006815 223.5436 136.5270 15.36000209112200

JSON: /api/v1/satellites/59776 · /tle

For live sub-satellite position, see the globe view (requires WebGL).

§ Visibility from observer

Set your observer location to see the next 7 days of passes ≥ 10°. The values pass through the URL so the page stays shareable.

No JS? Fill the form by hand. The geolocation button needs JavaScript.

§ Radio — SatNOGS DB

ModeDescriptionDownlinkUplink
FM Telemetry 401.050 MHz

1 transmitter · refreshed weekly from db.satnogs.org